Simultaneous Nadir Overpasses (SNOs) Predictions

Prediction of SNOs between AQUA and NOAA-19 Satellite Orbit:

Table of predicted SNOs for the next 14.0 days since TLE Epoch: 6/8/2018
Index Date (AQUA) Time (AQUA) Lat,Lon (AQUA) SZA (AQUA ) Date (NOAA-19) Time (NOAA-19) Lat,Lon (NOAA-19) SZA (NOAA-19 ) Distance(km) Time Diff (sec)
1 06/10/2018 05:09:45 80.81, 64.23 59.87 06/10/2018 05:09:52 80.80, 64.22 59.86 0.88 7
2 06/12/2018 10:43:28 -80.80, 160.84 120.28 06/12/2018 10:43:33 -80.80, 160.83 120.29 0.61 5
3 06/14/2018 16:17:11 80.79,-102.49 59.60 06/14/2018 16:17:03 80.80,-102.37 59.59 2.21 8
4 06/16/2018 21:50:54 -80.79, -5.84 120.50 06/16/2018 21:50:44 -80.79, -5.96 120.47 2.26 10
5 06/19/2018 03:24:37 80.79, 90.70 59.48 06/19/2018 03:24:15 80.79, 90.60 59.50 1.73 22
6 06/19/2018 04:14:00 -80.68,-100.40 120.74 06/19/2018 04:15:14 -80.84, -99.94 120.70 19.37 74
7 06/21/2018 08:58:20 -80.78,-172.61 120.55 06/21/2018 08:57:54 -80.79,-172.54 120.54 2.14 26




NCC Satellite Simultaneous Nadir Overpasses (SNOs) Prediction Service
